STARLINK-35198, 65672

Orbit data source: Space-Track

STARLINK-35198, 65672 is a payload satellite owned by SpaceX/Seattle (US) in SSO that was launched on Fri, 19 Sep 2025 UTC via an FALCON 9 launch vehicle from the Air Force Western Test Range (AFWTR). Payload-class satellites include a variety of spacecraft equipped with specific instruments for various scientific and technological missions. These include communications satellites like Starlink; space stations such as the ISS; scientific satellites like the Hubble; Earth observation satellites from companies like Planet Labs, Umbra, and HawkEye 360; GPS; miniature CubeSats for education and research; and military/defense satellites.

Loading next visibility...
Identifier
65672, 2025-211W
Orbit
SSO
Country
Flag of USUS
Related business
Manufacturer
SpaceX/Seattle
Mission
Operational Commercial Communications
Bus & Motor
STARLINK V2MO, Unknown motor
Mass
575 kg wet, ~530 kg dry
Launch date (UTC)
2025-09-19 (9 months ago)
Launch vehicle
FALCON 9
Launch site
Air Force Western Test Range (AFWTR)
Object type
Payload
Rocket body
Debris
Shape & HBR
Box + 2 Pan, 17.7 m
Radar Cross Section
36.964 m², Large (>1 m²)

Expand to show TLE details & history
Last TLE update: 23 hours ago

TLE from 23 hours ago
0 STARLINK-35198
1 65672U 25211W   26170.88536622  .00004175  00000-0  29305-3 0  9992
2 65672  97.3369 213.7940 0001628  96.8348 263.3065 15.05664932 42424
Epoch: 2026-06-19T21:14Z
TLE epoch observation values (Epoch: 2026-06-19T21:14:55.641Z)
Latitude
Longitude
-13.04576°
Altitude
552.67 km
Speed
7.585 km/s
True Right ascension
14h 15m 10s
True Declination
0° 00' 00"
Sunlit
Object was in full shadow at epoch
Visualization orbit readout
Latitude
Unknown
Longitude
Unknown
Altitude
Unknown
Speed
Unknown
Apparent Right ascension
Unknown
Apparent Declination
Unknown
Sunlit
N/A
Visualization observer readout
Local Sidereal Time
07:13:21
Azimuth
Unknown
Elevation
Unknown
Doppler factor
Unknown
Orbital elements
Apogee altitude
547.575 km
Perigee altitude
545.32 km
Semi-major axis
6,924.584 km
Eccentricity
0.00016
Inclination
97.3369°
RAAN
213.794°
Arg. of periapsis
96.8348°
True anomaly
263.28797°
Mean anomaly
263.3065°
Eccentric anomaly
263.29724°
Mean motion
3.76663 °/min
Orbital period
95.58 mins
BSTAR
0.00029305
Loading maneuver chart data...
Computing Atmospheric mass density...
Loading historical data...
Loading historical data...
Loading historical data...
Loading historical data...
Loading historical data...
Loading historical data...
Loading historical data...

Documentation

Showing up to 5 results
|